ORBCOMM-X 1 21576U 91050C 25349.72945746 .00000330 00000+0 11036-3 0 9992 2 21576 98.3227 52.4373 0003671 17.0633 343.0680 14.43437976808306 ORBCOMM FM01 1 23545U 95017A 25349.36595140 .00005477 00000+0 53236-3 0 9991 2 23545 69.9627 341.4573 0003892 337.0683 23.0299 14.93126210639528 ORBCOMM FM02 1 23546U 95017B 25349.77259600 .00006562 00000+0 61112-3 0 9993 2 23546 69.9645 359.0486 0005054 352.1127 7.9949 14.94710499639252 ORBCOMM FM08 1 25112U 97084A 25349.93563016 .00001100 00000+0 34184-3 0 9999 2 25112 45.0115 214.9264 0006645 86.5814 273.5798 14.46604930467689 ORBCOMM FM10 1 25113U 97084B 25349.94513022 .00001174 00000+0 36402-3 0 9999 2 25113 45.0138 217.5979 0005336 52.5144 307.6193 14.46349876642826 ORBCOMM FM11 1 25114U 97084C 25349.91267283 .00001110 00000+0 34816-3 0 9999 2 25114 45.0118 218.7236 0006092 54.0049 306.1367 14.46094063467776 ORBCOMM FM12 1 25115U 97084D 25349.94165304 .00001056 00000+0 33309-3 0 9999 2 25115 45.0121 218.3157 0005212 51.1335 308.9981 14.46117029467576 ORBCOMM FM09 1 25116U 97084E 25349.92205968 .00001082 00000+0 34146-3 0 9998 2 25116 45.0132 219.5408 0006449 40.6396 319.4936 14.45954759467771 ORBCOMM FM05 1 25117U 97084F 25349.88733004 .00001042 00000+0 32520-3 0 9991 2 25117 45.0128 215.1904 0002850 51.8551 308.2557 14.46716421466912 ORBCOMM FM06 1 25118U 97084G 25349.93266799 .00001125 00000+0 34694-3 0 9996 2 25118 45.0116 214.4922 0001758 50.5735 324.0369 14.46880060467849 ORBCOMM FM07 1 25119U 97084H 25349.94221874 .00001095 00000+0 33857-3 0 9999 2 25119 45.0116 215.1962 0003665 49.2480 310.8690 14.46891161467836 ORBCOMM FM03 1 25158U 98007B 25349.89352111 .00001065 00000+0 41444-3 0 9999 2 25158 107.9645 148.9810 0046642 289.3593 70.2508 14.35032615450109 ORBCOMM FM04 1 25159U 98007C 25349.42852275 .00001330 00000+0 50467-3 0 9995 2 25159 107.9636 151.3695 0042474 287.4407 72.2092 14.35278049450227 ORBCOMM FM17 1 25413U 98046A 25349.78979281 .00000962 00000+0 37978-3 0 9999 2 25413 44.9932 120.2693 0001793 69.7106 290.3934 14.35543209429269 ORBCOMM FM18 1 25414U 98046B 25349.85146977 .00001193 00000+0 42748-3 0 9994 2 25414 44.9940 32.4294 0003253 147.1261 212.9790 14.39162329430419 ORBCOMM FM19 1 25415U 98046C 25349.85448904 .00001218 00000+0 43679-3 0 9992 2 25415 44.9951 34.6925 0002082 155.1222 14.1131 14.38981610430368 ORBCOMM FM20 1 25416U 98046D 25349.86726405 .00000848 00000+0 32658-3 0 9992 2 25416 44.9950 40.6085 0001958 227.7102 132.3580 14.37670931430402 ORBCOMM FM16 1 25417U 98046E 25349.84734052 .00001159 00000+0 41331-3 0 9992 2 25417 44.9949 29.7884 0003727 167.2174 192.8770 14.39539118430426 ORBCOMM FM15 1 25418U 98046F 25349.86942052 .00001126 00000+0 40578-3 0 9992 2 25418 44.9978 35.3830 0003603 169.3439 190.7487 14.39168339430417 ORBCOMM FM14 1 25419U 98046G 25349.83869033 .00001180 00000+0 41970-3 0 9994 2 25419 44.9967 33.2121 0002420 180.9466 179.1379 14.39587056430389 ORBCOMM FM13 1 25420U 98046H 25349.83939518 .00000946 00000+0 35512-3 0 9996 2 25420 44.9983 43.0284 0003706 135.3574 224.7573 14.38204371429386 ORBCOMM FM21 1 25475U 98053A 25349.89092750 .00000942 00000+0 35665-3 0 9993 2 25475 45.0070 128.7406 0001264 111.2905 248.8078 14.37800890423399 ORBCOMM FM22 1 25476U 98053B 25349.78918788 .00001051 00000+0 38331-3 0 9995 2 25476 45.0065 122.5307 0002498 82.3512 277.7620 14.38972749423420 ORBCOMM FM23 1 25477U 98053C 25349.65713211 .00000953 00000+0 35861-3 0 9991 2 25477 45.0070 131.6833 0001945 80.8341 279.2727 14.38038026423517 ORBCOMM FM24 1 25478U 98053D 25349.79859882 .00001143 00000+0 41569-3 0 9996 2 25478 45.0066 127.6639 0001827 96.7659 263.3397 14.38661424423598 ORBCOMM FM25 1 25479U 98053E 25349.70426545 .00001153 00000+0 41911-3 0 9996 2 25479 45.0061 126.4102 0004216 92.1888 267.9443 14.38628979423876 ORBCOMM FM26 1 25480U 98053F 25349.76969199 .00000985 00000+0 37229-3 0 9990 2 25480 45.0057 123.9160 0006271 104.3704 255.7841 14.37601805423779 ORBCOMM FM27 1 25481U 98053G 25349.75726564 .00001198 00000+0 43319-3 0 9991 2 25481 45.0043 126.2914 0001277 152.1611 207.9306 14.38663241423810 ORBCOMM FM28 1 25482U 98053H 25349.63561119 .00000971 00000+0 35895-3 0 9990 2 25482 45.0060 64.1443 0004486 156.3419 203.7636 14.38793360424484 ORBCOMM FM30 1 25980U 99065A 25349.87783428 .00000939 00000+0 35569-3 0 9994 2 25980 45.0324 309.4364 0006211 218.3282 141.7126 14.37771158360598 ORBCOMM FM31 1 25981U 99065B 25349.92910158 .00000923 00000+0 35102-3 0 9999 2 25981 45.0237 302.6465 0004566 251.6016 108.4336 14.37698029360155 ORBCOMM FM32 1 25982U 99065C 25349.95652641 .00000909 00000+0 35308-3 0 9995 2 25982 45.0168 320.3099 0006884 238.8398 121.1775 14.36755778360731 ORBCOMM FM33 1 25983U 99065D 25349.69454236 .00000931 00000+0 33409-3 0 9992 2 25983 45.0267 215.7038 0007815 260.5437 99.4529 14.40535731362234 ORBCOMM FM36 1 25984U 99065E 25349.89313219 .00001209 00000+0 43658-3 0 9996 2 25984 45.0399 309.4419 0000941 155.7664 204.3229 14.38719568360584 ORBCOMM FM35 1 25985U 99065F 25349.31152865 .00001104 00000+0 41119-3 0 9996 2 25985 45.0406 318.7085 0004689 249.5375 110.4970 14.37624944360841 ORBCOMM FM34 1 25986U 99065G 25349.90367170 .00000910 00000+0 34766-3 0 9993 2 25986 45.0399 316.3735 0003165 208.9978 151.0695 14.37576452361043 ORBCOMM FM38 1 33060U 08031A 25349.94845453 .00001517 00000+0 21477-3 0 9996 2 33060 48.4373 168.4906 0004409 111.1753 248.9635 14.82276389941701 ORBCOMM FM41 1 33061U 08031B 25349.96583454 .00001299 00000+0 18974-3 0 9994 2 33061 48.4410 176.8317 0003543 94.1193 60.4495 14.81831596941188 ORBCOMM FM29 1 33062U 08031C 25349.93313005 .00001321 00000+0 19188-3 0 9999 2 33062 48.4365 184.5529 0005259 91.7352 50.5367 14.81978651941097 ORBCOMM FM39 1 33063U 08031D 25349.91849914 .00001154 00000+0 17710-3 0 9994 2 33063 48.4383 210.9546 0006203 58.0850 302.0668 14.80418784940712 ORBCOMM FM37 1 33064U 08031E 25349.86584418 .00001172 00000+0 17861-3 0 9991 2 33064 48.4373 199.4432 0004750 79.6602 293.7649 14.80615639940966 ORBCOMM FM40 1 33065U 08031F 25349.91696759 .00001543 00000+0 21380-3 0 9993 2 33065 48.4391 180.0523 0005791 97.9376 44.0378 14.83121841941126 VESSELSAT 1 1 37840U 11058C 25349.93985925 .00000353 00000+0 48145-4 0 9996 2 37840 19.9622 74.0595 0013772 26.4063 333.7042 14.11399376732013 ORBCOMM FM109 1 40086U 14040A 25349.94698367 .00000561 00000+0 15573-3 0 9997 2 40086 47.0026 237.6611 0001151 91.0398 269.0619 14.58549676607598 ORBCOMM FM107 1 40087U 14040B 25349.96610164 .00000585 00000+0 16069-3 0 9996 2 40087 47.0041 238.4583 0001037 5.1931 354.8966 14.58625713607679 ORBCOMM FM106 1 40088U 14040C 25349.87914035 .00001020 00000+0 19925-3 0 9990 2 40088 47.0614 46.3025 0016797 194.8646 165.1753 14.70037439610207 ORBCOMM FM111 1 40089U 14040D 25349.97805199 .00002079 00000+0 24778-3 0 9999 2 40089 46.9998 230.9651 0028753 342.8509 17.1415 14.87742417617288 ORBCOMM FM104 1 40090U 14040E 25349.81238426 .00000562 00000+0 16124-3 0 9998 2 40090 47.0055 274.9923 0016882 314.1359 45.8137 14.57012603607104 ORBCOMM FM103 1 40091U 14040F 25349.88010433 .00000542 00000+0 15189-3 0 9990 2 40091 47.0047 239.5258 0001621 15.9064 344.1872 14.58539514590623 ORBCOMM FM114 1 41179U 15081A 25349.82833910 .00000220 00000+0 83177-4 0 9997 2 41179 47.0033 148.7250 0001771 85.6869 274.4219 14.58559572530981 ORBCOMM FM119 1 41180U 15081B 25349.61899156 .00000632 00000+0 17116-3 0 9996 2 41180 47.0012 59.0726 0001272 208.4449 151.6367 14.58506586532201 ORBCOMM FM105 1 41181U 15081C 25349.68835907 .00000271 00000+0 12088-3 0 9990 2 41181 47.0015 81.4259 0000968 39.4860 320.6091 14.45407150527002 ORBCOMM FM110 1 41182U 15081D 25349.88675606 .00000820 00000+0 21081-3 0 9994 2 41182 47.0005 147.9498 0002708 297.1872 62.8737 14.58586331530868 ORBCOMM FM118 1 41183U 15081E 25349.85273909 .00000664 00000+0 17769-3 0 9996 2 41183 47.0026 148.4087 0003220 262.3690 97.6830 14.58579401530965 ORBCOMM FM112 1 41184U 15081F 25349.92393237 .00000673 00000+0 17964-3 0 9999 2 41184 47.0000 56.6074 0000623 101.3777 258.7178 14.58583365532192 ORBCOMM FM113 1 41185U 15081G 25349.62719729 .00000842 00000+0 21551-3 0 9990 2 41185 47.0014 58.3657 0000533 138.5881 221.5045 14.58578643532130 ORBCOMM FM115 1 41186U 15081H 25349.81704866 .00000695 00000+0 16856-3 0 9996 2 41186 46.9982 255.4771 0000844 217.3045 142.7784 14.62927073534364 ORBCOMM FM108 1 41187U 15081J 25349.93228952 .00000908 00000+0 22972-3 0 9990 2 41187 47.0062 328.4325 0001831 50.9747 309.1302 14.58561901533328 ORBCOMM FM117 1 41188U 15081K 25349.35007863 .00000970 00000+0 24279-3 0 9994 2 41188 47.0024 329.8814 0002103 60.2165 299.8930 14.58586236533281 ORBCOMM FM116 1 41189U 15081L 25349.60440269 .00000947 00000+0 23798-3 0 9993 2 41189 47.0030 58.4501 0002597 274.6029 85.4560 14.58579765532134